loading
DOY 175 | 2024-06-23T10:21:35Z
Showing default

INTELSAT 29E, 41308

Orbit data source: Space-Track

INTELSAT 29E, 41308 is a payload satellite owned by Intelsat SA (US) (US) in GEO that was launched on Wed, 27 Jan 2016 UTC via an Ariane 5ECA launch vehicle from the French Guiana (FRGUI). Payloads include a variety of satellites, spacecraft, and rockets equipped with specific instruments for various scientific and technological missions. These include communications satellites like Starlink; space stations such as the ISS; scientific satellites like the Hubble; Earth observation satellites from companies like Planet Labs, Umbra, and HawkEye 360; GPS; miniature CubeSats for education and research; and military/defense satellites.

Next visibility unknown
Loading greatness...
INTELSAT 29E details
NORAD ID41308
COSPAR ID
2016-004A
Orbit
GEO
Last TLE update12 hours ago
Origin
Flag of USIntelsat SA (US) (US / ITSO)
ManufacturerBoeing/ES
BusBSS-702MP
MotorLeros
Mass6,552 kg wet, ~2,946 kg dry
Launch date (UTC)
2016-01-27 (8 years ago)
Launch vehicle
Ariane 5ECA
Launch site
French Guiana (FRGUI)
Object type
Payload
Rocket body
Debris
Radar Cross SectionLarge (>1 m²)
Predictive object data (real-time)
Latitude1.78862°
Longitude-4.15956°
Altitude35,718.203 km
Speed3.076 km/s
Apparent Right ascension15h 18m 39s
Apparent Declination-3° 45' 20"
Sunlit
Object is in daylight
Predictive observer data (real-time)
Local Sidereal Time21:29:26
Azimuth268.845° W
Elevation-4.477°
Doppler factor1
Orbital elements
Apogee35,727.745 km
Perigee35,658.428 km
Semi-major axis42,071.224 km
Eccentricity0.0008238
Inclination4.6706°
RAAN79.0112°
Arg. of periapsis16.6792°
True anomaly312.83981°
Mean anomaly312.909°
Mean motion0.25152 °/min
BSTARUnknown
Period1431.32 mins
Definitive object data (Epoch: 2024-06-22T21:55:43.32Z)
Latitude-2.3543°
Longitude168.11331°
Altitude35,668.137 km
Speed3.08 km/s
True Right ascension03h 14m 27s
True Declination-2° 21' 07"
Sunlit
Object was in daylight at TLE epoch
TLE from 12 hours ago
0 INTELSAT 29E
1 41308U 16004A   24174.91369584  .00000032  00000-0  00000+0 0  9994
2 41308   4.6706  79.0112 0008238  16.6792 312.9090  1.00610080 30961
Epoch: 2024-06-22T21:55Z
No data available
Other satellites on launch #4 in the year 2016 (2016-01-27 UTC)

INTELSAT 29E Visibility forecast

Observer location: 39.9160978°, -105.1181434, 0m alt.

INTELSAT 29E is not visible in the next 10 days
Span
Click to sort rows by Start time (UTC) header in descending order
Start Az.
Max El. time (UTC)
Max El. Az.
Max El.
End time (UTC)
End Az.